EW1325 Weather Reports


time (UTC)temp
C
wind
direction
speed
KPH
gust
KPH
rain 1hr
cm
rain 24hr
cm
rain mn
cm
humidity
%
barometer
mb
20260901131558 20 160 0.0 0.0 0.15 0.18 0.18 97 1014.7
20260901131058 20 186 0.0 0.0 0.15 0.18 0.18 97 1014.7
20260901130558 20 170 0.0 0.0 0.15 0.18 0.18 97 1014.8
20260901130106 20 194 0.0 0.0 0.13 0.15 0.15 97 1014.8
20260901125600 20 167 0.0 0.0 0.13 0.15 0.15 97 1014.9
20260901125056 20 150 0.0 0.0 0.13 0.13 0.13 97 1015.1
20260901124556 20 151 0.0 0.0 0.13 0.13 0.13 97 1015.1
20260901124055 20 151 0.0 0.0 0.13 0.13 0.13 97 1015.1
20260901123556 20 150 0.0 0.0 0.13 0.13 0.13 97 1015.0
20260901123055 20 150 0.0 0.0 0.10 0.10 0.10 97 1014.9
20260901122553 20 150 0.0 0.0 0.08 0.08 0.08 97 1015.0
20260901122056 20 150 0.0 0.0 0.05 0.05 0.05 97 1014.9
20260901121559 20 150 0.0 0.0 0.03 0.03 0.03 96 1015.0
20260901121053 20 150 0.0 0.0 0.03 0.03 0.03 96 1015.0
20260901120553 20 181 0.0 0.0 0.03 0.03 0.03 96 1014.9
20260901120105 20 181 0.0 0.0 0.03 0.03 0.03 96 1014.8
20260901115553 20 179 0.0 0.0 0.03 0.03 0.03 96 1014.8
20260901115056 20 179 0.0 0.0 0.00 0.00 0.00 96 1014.8
20260901114555 20 179 0.0 0.0 0.00 0.00 0.00 96 1014.8
20260901114054 20 179 0.0 0.0 0.00 0.00 0.00 96 1014.8
20260901113554 20 179 0.0 0.0 0.00 0.00 0.00 96 1014.8
20260901113052 20 179 0.0 0.0 0.00 0.00 0.00 96 1014.8
20260901112553 20 222 0.0 0.0 0.00 0.00 0.00 96 1014.6
20260901112053 20 156 0.0 0.0 0.00 0.00 0.00 96 1014.6
20260901111557 20 162 0.0 0.0 0.00 0.00 0.00 96 1014.4
20260901111050 20 193 0.0 0.0 0.00 0.00 0.00 96 1014.5
20260901110551 20 160 0.0 0.0 0.00 0.00 0.00 96 1014.4
20260901110052 20 148 0.0 0.0 0.00 0.00 0.00 96 1014.4
20260901105549 20 146 0.0 0.0 0.00 0.00 0.00 96 1014.6
20260901105048 20 152 0.0 0.0 0.00 0.00 0.00 96 1014.6
20260901104548 20 163 0.0 0.0 0.00 0.00 0.00 96 1014.6
20260901104049 20 158 0.0 0.0 0.00 0.00 0.00 96 1014.7
20260901103547 20 169 0.0 0.0 0.00 0.00 0.00 96 1014.6
20260901103055 20 151 0.0 0.0 0.00 0.00 0.00 96 1014.6
20260901102551 20 167 0.0 0.0 0.00 0.00 0.00 96 1014.6
20260901102046 20 187 0.0 0.0 0.00 0.00 0.00 95 1014.6
20260901101554 20 184 0.0 0.0 0.00 0.00 0.00 95 1014.5
20260901101050 20 176 0.0 0.0 0.00 0.00 0.00 95 1014.6
20260901100546 20 167 0.0 0.0 0.00 0.00 0.00 95 1014.6
20260901100052 20 169 0.0 0.0 0.00 0.00 0.00 95 1014.6
20260901095547 20 150 0.0 0.0 0.00 0.00 0.00 95 1014.6
20260901095048 20 187 0.0 0.0 0.00 0.00 0.00 95 1014.7
20260901094544 20 155 0.0 0.0 0.00 0.00 0.00 95 1014.6
20260901094046 20 155 0.0 0.0 0.00 0.00 0.00 94 1014.5
20260901093545 20 193 0.0 0.0 0.00 0.00 0.00 94 1014.6
20260901093042 20 194 0.0 0.0 0.00 0.00 0.00 94 1014.7
20260901092542 20 194 0.0 0.0 0.00 0.00 0.00 94 1014.7
20260901092042 20 194 0.0 0.0 0.00 0.00 0.00 94 1014.8
20260901091542 20 194 0.0 0.0 0.00 0.00 0.00 94 1014.7
20260901091040 20 194 0.0 0.0 0.00 0.00 0.00 94 1014.7
20260901090540 20 194 0.0 0.0 0.00 0.00 0.00 94 1014.8
20260901090040 20 194 0.0 0.0 0.00 0.00 0.00 94 1014.8
20260901085539 20 194 0.0 0.0 0.00 0.00 0.00 94 1014.8
20260901085040 20 193 0.0 0.0 0.00 0.00 0.00 94 1014.9
20260901084545 20 193 0.0 0.0 0.00 0.00 0.00 94 1015.0
20260901084038 20 194 0.0 0.0 0.00 0.00 0.00 94 1015.0
20260901083541 20 194 0.0 0.0 0.00 0.00 0.00 94 1015.1
20260901083037 20 153 0.0 0.0 0.00 0.00 0.00 94 1015.0
20260901082536 20 114 0.0 0.0 0.00 0.00 0.00 94 1015.1
20260901082036 20 207 0.0 0.0 0.00 0.00 0.00 94 1015.1
20260901081535 20 176 0.0 0.0 0.00 0.00 0.00 93 1015.2
20260901081037 20 172 0.0 0.0 0.00 0.00 0.00 93 1015.2
20260901080534 20 153 0.0 0.0 0.00 0.00 0.00 94 1015.3
20260901080134 20 153 0.0 0.0 0.00 0.00 0.00 94 1015.3
20260901075534 20 155 0.0 0.0 0.00 0.00 0.00 94 1015.3
20260901075033 20 155 0.0 0.0 0.00 0.00 0.00 94 1015.3
20260901074532 20 155 0.0 0.0 0.00 0.00 0.00 94 1015.3
20260901074034 20 195 0.0 0.0 0.00 0.00 0.00 94 1015.4
20260901073532 20 224 0.0 0.0 0.00 0.00 0.00 94 1015.5
20260901073042 20 224 0.0 0.0 0.00 0.00 0.00 94 1015.5
20260901072530 20 224 0.0 0.0 0.00 0.00 0.00 94 1015.6
20260901072029 20 224 0.0 0.0 0.00 0.00 0.00 94 1015.6
20260901071530 20 224 0.0 0.0 0.00 0.00 0.00 93 1015.6
20260901071029 20 224 0.0 0.0 0.00 0.00 0.00 93 1015.6
20260901070529 20 224 0.0 0.0 0.00 0.00 0.00 93 1015.7
20260901070029 20 224 0.0 0.0 0.00 0.00 0.00 93 1015.6
20260901065529 20 198 0.0 0.0 0.00 0.00 0.00 93 1015.5
20260901065029 20 200 0.0 0.0 0.00 0.00 0.00 93 1015.6
20260901064527 20 200 0.0 0.0 0.00 0.00 0.00 93 1015.7
20260901064027 20 200 0.0 0.0 0.00 0.00 0.00 92 1015.7
20260901063529 20 200 0.0 0.0 0.00 0.00 0.00 92 1015.7
20260901063026 20 200 0.0 0.0 0.00 0.00 0.00 92 1015.7
20260901062525 20 200 0.0 0.0 0.00 0.00 0.00 91 1015.7
20260901062025 20 200 0.0 0.0 0.00 0.00 0.00 91 1015.8
20260901061524 20 200 0.0 0.0 0.00 0.00 0.00 91 1015.9
20260901061024 20 159 0.0 0.0 0.00 0.00 0.00 90 1015.9
20260901060524 20 167 0.0 0.0 0.00 0.00 0.00 90 1016.0
20260901060037 20 132 0.0 0.0 0.00 0.00 0.00 90 1015.9
20260901055522 20 165 0.0 0.0 0.00 0.00 0.00 89 1015.9
20260901055022 20 183 0.0 0.0 0.00 0.00 0.00 89 1016.0
20260901054520 20 146 0.0 0.0 0.00 0.00 0.00 89 1016.1
20260901054019 20 202 0.0 0.0 0.00 0.00 0.00 89 1016.2
20260901053519 20 160 0.0 0.0 0.00 0.00 0.00 89 1016.2
20260901053019 20 205 0.0 0.0 0.00 0.00 0.00 89 1016.2
20260901052517 20 186 0.0 0.0 0.00 0.00 0.00 89 1016.2
20260901052016 20 177 0.0 0.0 0.00 0.00 0.00 89 1016.3
20260901051516 20 170 0.0 0.0 0.00 0.00 0.00 89 1016.4
20260901051017 20 208 0.0 0.0 0.00 0.00 0.00 89 1016.4
20260901050516 20 208 0.0 0.0 0.00 0.00 0.00 88 1016.4
20260901050016 20 170 0.0 0.0 0.00 0.00 0.00 88 1016.4
20260901045516 20 146 0.0 0.0 0.00 0.00 0.00 88 1016.5
20260901045014 20 145 0.0 0.0 0.00 0.00 0.00 88 1016.5
20260901044514 20 211 0.0 0.0 0.00 0.00 0.00 88 1016.5
20260901044014 20 207 0.0 0.0 0.00 0.00 0.00 88 1016.5
20260901043514 20 179 0.0 0.0 0.00 0.00 0.00 88 1016.5
20260901043113 20 172 0.0 0.0 0.00 0.00 0.00 88 1016.5
20260901042512 20 156 0.0 0.0 0.00 0.00 0.00 88 1016.5
20260901042012 20 148 0.0 0.0 0.00 0.00 0.00 88 1016.5
20260901041512 20 148 0.0 0.0 0.00 0.00 0.00 88 1016.5
20260901041011 20 133 0.0 0.0 0.00 0.00 0.00 88 1016.6
20260901040511 20 191 0.0 0.0 0.00 0.00 0.00 88 1016.6
20260901040011 20 200 0.0 0.0 0.00 0.00 0.00 88 1016.5
20260901035512 20 165 0.0 0.0 0.00 0.00 0.00 88 1016.5
20260901035009 20 139 0.0 0.0 0.00 0.00 0.00 88 1016.5
20260901034509 20 160 0.0 0.0 0.00 0.00 0.00 88 1016.6
20260901034009 20 160 0.0 0.0 0.00 0.00 0.00 88 1016.6
20260901033512 20 161 0.0 0.0 0.00 0.00 0.00 87 1016.7
20260901033009 20 187 0.0 0.0 0.00 0.00 0.00 87 1016.7
20260901032509 20 172 0.0 0.0 0.00 0.00 0.00 87 1016.7
20260901032009 20 138 0.0 0.0 0.00 0.00 0.00 86 1016.8
20260901031509 20 167 0.0 0.0 0.00 0.00 0.00 86 1016.8
20260901031010 20 166 0.0 0.0 0.00 0.00 0.00 86 1016.8
20260901030508 20 138 0.0 0.0 0.00 0.00 0.00 85 1016.7
20260901030008 21 201 0.0 0.0 0.00 0.00 0.00 84 1016.9
20260901025508 21 201 0.0 0.0 0.00 0.00 0.00 84 1016.9
20260901025008 21 166 0.0 0.0 0.00 0.00 0.00 84 1016.9
20260901024508 21 144 0.0 0.0 0.00 0.00 0.00 83 1016.8
20260901024008 21 156 0.0 0.0 0.00 0.00 0.00 83 1016.9
20260901023511 21 155 0.0 0.0 0.00 0.00 0.00 83 1016.9
20260901023007 21 156 0.0 0.0 0.00 0.00 0.00 83 1016.8
20260901022507 21 145 0.0 0.0 0.00 0.00 0.00 82 1016.8
20260901022007 21 159 0.0 0.0 0.00 0.00 0.00 82 1016.7
20260901021510 21 177 0.0 0.0 0.00 0.00 0.00 82 1016.7
20260901021007 21 148 0.0 0.0 0.00 0.00 0.00 82 1016.7
20260901020507 21 148 0.0 0.0 0.00 0.00 0.00 81 1016.7
20260901020007 21 163 0.0 0.0 0.00 0.00 0.00 81 1016.8
20260901015507 21 166 0.0 0.0 0.00 0.00 0.00 80 1016.7
20260901015007 21 152 0.0 0.0 0.00 0.00 0.00 80 1016.7
20260901014505 21 148 0.0 0.0 0.00 0.00 0.00 79 1016.8
20260901014005 21 143 0.0 0.0 0.00 0.00 0.00 79 1016.8
20260901013506 21 156 0.0 0.0 0.00 0.00 0.00 78 1016.9
20260901013008 21 167 0.0 0.0 0.00 0.00 0.00 78 1016.9
20260901012508 21 148 0.0 0.0 0.00 0.00 0.00 78 1017.1
20260901012009 21 173 0.0 0.0 0.00 0.00 0.00 77 1017.2
20260901011505 21 173 0.0 0.0 0.00 0.00 0.00 77 1017.1
20260901011005 21 173 0.0 0.0 0.00 0.00 0.00 77 1017.1
20260901010509 21 143 0.0 0.0 0.00 0.00 0.00 77 1017.1
20260901010005 21 165 0.0 0.0 0.00 0.00 0.00 76 1017.1
20260901005507 21 157 0.0 0.0 0.00 0.00 0.00 76 1017.0
20260901005006 21 148 0.0 0.0 0.00 0.00 0.00 76 1017.0
20260901004504 21 148 0.0 0.0 0.00 0.00 0.00 76 1017.0
20260901004004 21 195 0.0 0.0 0.00 0.00 0.00 76 1017.0
20260901003503 21 171 0.0 0.0 0.00 0.00 0.00 76 1017.0
20260901003010 21 157 0.0 0.0 0.00 0.00 0.00 76 1016.9
20260901002503 21 163 0.0 0.0 0.00 0.00 0.00 76 1016.9
20260901002008 21 170 0.0 0.0 0.00 0.00 0.00 76 1016.9
20260901001504 21 163 0.0 0.0 0.00 0.00 0.00 75 1016.9
20260901001003 21 211 0.0 0.0 0.00 0.00 0.00 75 1016.7
20260901000502 21 138 0.0 0.0 0.00 0.00 0.00 75 1016.8
20260901000003 21 163 0.0 0.0 0.00 0.00 0.00 76 1016.8
20260831235502 22 214 0.0 0.0 0.00 0.03 0.00 76 1016.9
20260831235002 22 203 0.0 0.0 0.00 0.03 0.00 76 1016.8
20260831234502 22 158 0.0 0.0 0.00 0.03 0.00 76 1016.8
20260831234002 22 152 0.0 0.0 0.00 0.03 0.00 77 1016.7
20260831233504 22 143 0.0 0.0 0.00 0.03 0.00 77 1016.8
20260831233001 22 165 0.0 0.0 0.00 0.03 0.00 78 1016.8
20260831232501 22 201 0.0 0.0 0.00 0.03 0.00 78 1016.9
20260831232001 22 204 0.0 0.0 0.00 0.03 0.00 78 1016.9
20260831231600 22 165 0.0 0.0 0.00 0.03 0.00 77 1016.9
20260831231100 22 165 0.0 0.0 0.00 0.03 0.00 77 1016.9
20260831230604 22 174 0.0 0.0 0.00 0.03 0.00 76 1017.0
20260831230113 22 173 0.0 0.0 0.00 0.03 0.00 75 1017.0
20260831225601 22 148 0.0 0.0 0.00 0.03 0.00 75 1017.1
20260831225100 23 231 0.0 0.0 0.00 0.03 0.00 74 1017.1
20260831224559 23 135 0.0 0.0 0.00 0.03 0.00 74 1017.1
20260831224059 23 134 0.0 0.0 0.00 0.03 0.00 74 1017.1
20260831223559 23 135 0.0 0.0 0.00 0.03 0.00 72 1017.1
20260831223109 23 145 0.0 0.0 0.00 0.03 0.00 72 1017.0
20260831222558 23 138 0.0 0.0 0.00 0.03 0.00 71 1017.0
20260831222058 23 145 0.0 0.0 0.00 0.03 0.00 70 1017.1
20260831221600 23 131 0.0 0.0 0.00 0.03 0.00 69 1017.2
20260831221058 23 150 0.0 0.0 0.00 0.03 0.00 68 1017.2
20260831220558 23 152 0.0 0.0 0.00 0.03 0.00 68 1017.1
20260831220059 23 148 0.0 0.0 0.00 0.03 0.00 67 1017.1
20260831215558 23 173 0.0 0.0 0.00 0.03 0.00 65 1017.0
20260831215057 23 134 0.0 0.0 0.00 0.03 0.00 65 1017.1
20260831214608 23 214 0.0 0.0 0.00 0.03 0.00 64 1017.1
20260831214058 23 172 0.0 0.0 0.00 0.03 0.00 64 1017.0
20260831213556 23 204 0.0 0.0 0.00 0.03 0.00 64 1017.0
20260831213058 23 208 0.0 0.0 0.00 0.03 0.00 65 1016.9
20260831212556 23 145 0.0 0.0 0.00 0.03 0.00 63 1016.9
20260831212059 23 156 0.0 0.0 0.00 0.03 0.00 63 1017.0
20260831211556 24 155 0.0 0.0 0.00 0.03 0.00 64 1017.0
20260831211056 24 120 0.0 0.0 0.00 0.03 0.00 63 1017.0
20260831210559 24 136 0.0 0.0 0.00 0.03 0.00 63 1017.0
20260831210056 24 137 0.0 0.0 0.00 0.03 0.00 62 1016.9
20260831205559 25 176 0.0 0.0 0.00 0.03 0.00 63 1016.9
20260831205054 25 205 0.0 0.0 0.00 0.03 0.00 65 1016.9
20260831204554 25 146 0.0 0.0 0.00 0.03 0.00 63 1016.8
20260831204054 25 205 0.0 0.0 0.00 0.03 0.00 63 1016.8
20260831203554 25 177 0.0 0.0 0.00 0.03 0.00 64 1016.9
20260831203058 25 212 0.0 0.0 0.00 0.03 0.00 63 1016.9
20260831202553 25 153 0.0 0.0 0.00 0.03 0.00 61 1017.0
20260831202056 26 167 0.0 0.0 0.00 0.03 0.00 61 1017.1
20260831201553 26 218 0.0 0.0 0.00 0.03 0.00 63 1017.0
20260831201054 26 173 0.0 0.0 0.00 0.03 0.00 59 1016.9
20260831200553 27 116 0.0 0.0 0.00 0.03 0.00 60 1016.9
20260831200104 26 344 0.0 0.0 0.00 0.03 0.00 61 1016.9
20260831195552 26 219 0.0 0.0 0.00 0.03 0.00 62 1016.8
20260831195051 26 135 0.0 0.0 0.00 0.03 0.00 63 1016.8
20260831194627 26 297 0.0 0.0 0.00 0.03 0.00 63 1016.9
20260831194051 26 231 0.0 0.0 0.00 0.03 0.00 64 1017.0
20260831193550 26 232 0.0 0.0 0.00 0.03 0.00 60 1017.0
20260831193053 25 283 0.0 0.0 0.00 0.03 0.00 64 1017.2
20260831192550 25 146 0.0 0.0 0.00 0.03 0.00 62 1017.2
20260831192050 25 150 0.0 0.0 0.00 0.03 0.00 62 1017.2
20260831191550 25 326 0.0 0.0 0.00 0.03 0.00 63 1017.4
20260831191054 25 125 0.0 0.0 0.00 0.03 0.00 64 1017.5
20260831190550 25 181 0.0 0.0 0.00 0.03 0.00 65 1017.5
20260831190057 25 259 0.0 0.0 0.00 0.03 0.00 63 1017.6
20260831185549 25 260 0.0 0.0 0.00 0.03 0.00 65 1017.7
20260831185048 25 259 0.0 0.0 0.00 0.03 0.00 62 1017.7
20260831184548 26 298 0.0 0.0 0.00 0.03 0.00 62 1017.6
20260831184051 26 113 0.0 0.0 0.00 0.03 0.00 62 1017.4
20260831183548 26 113 0.0 0.0 0.00 0.03 0.00 60 1017.4
20260831183055 26 111 0.0 0.0 0.00 0.03 0.00 60 1017.5
20260831182550 26 111 0.0 0.0 0.00 0.03 0.00 61 1017.5
20260831182053 26 115 0.0 0.0 0.00 0.03 0.00 59 1017.6
20260831181550 26 242 0.0 0.0 0.00 0.03 0.00 58 1017.6
20260831181047 26 124 0.0 0.0 0.00 0.03 0.00 57 1017.7
20260831180547 27 170 0.0 0.0 0.00 0.03 0.00 56 1017.8
20260831180103 27 302 0.0 0.0 0.00 0.03 0.00 57 1017.9
20260831175546 27 17 0.0 0.0 0.00 0.03 0.00 58 1017.9
20260831175048 26 18 0.0 0.0 0.00 0.03 0.00 55 1018.1
20260831174550 27 273 0.0 0.0 0.00 0.03 0.00 58 1018.1
20260831174045 27 188 0.0 0.0 0.00 0.03 0.00 55 1018.2
20260831173548 27 158 0.0 0.0 0.00 0.03 0.00 54 1018.3
20260831173043 26 141 0.0 0.0 0.00 0.03 0.00 55 1018.2
20260831172542 26 194 0.0 0.0 0.00 0.03 0.00 55 1018.2
20260831172041 26 117 0.0 0.0 0.00 0.03 0.00 56 1018.3
20260831171540 26 131 0.0 0.0 0.00 0.03 0.00 56 1018.2
20260831171040 26 352 0.0 0.0 0.00 0.03 0.00 58 1018.2
20260831170540 26 111 0.0 0.0 0.00 0.03 0.00 60 1018.4
20260831170042 25 110 0.0 0.0 0.00 0.03 0.00 60 1018.4
20260831165539 26 108 0.0 0.0 0.00 0.03 0.00 58 1018.4
20260831165037 26 103 0.0 0.0 0.00 0.03 0.00 61 1018.5
20260831164546 26 4 0.0 0.0 0.00 0.03 0.00 59 1018.7
20260831164037 26 223 0.0 0.0 0.00 0.03 0.00 62 1018.8
20260831163535 26 151 0.0 0.0 0.00 0.03 0.00 62 1018.8
20260831163034 26 129 0.0 0.0 0.00 0.03 0.00 62 1018.7
20260831162535 26 99 0.0 0.0 0.00 0.03 0.00 63 1018.6
20260831162033 25 115 0.0 0.0 0.00 0.03 0.00 64 1018.7
20260831161533 25 132 0.0 0.0 0.00 0.03 0.00 64 1018.8
20260831161031 25 195 0.0 0.0 0.00 0.03 0.00 64 1018.9
20260831160531 25 257 0.0 0.0 0.00 0.03 0.00 64 1019.0
20260831160031 25 156 0.0 0.0 0.00 0.03 0.00 65 1018.9
20260831155530 25 96 0.0 0.0 0.00 0.03 0.00 66 1019.1
20260831155031 25 127 0.0 0.0 0.00 0.03 0.00 67 1019.0
20260831154532 25 84 0.0 0.0 0.00 0.03 0.00 67 1019.0
20260831154028 25 85 0.0 0.0 0.00 0.03 0.00 68 1019.1
20260831153526 24 103 0.0 0.0 0.00 0.03 0.00 67 1019.1
20260831153025 24 101 0.0 0.0 0.00 0.03 0.00 68 1019.0
20260831152524 24 148 0.0 0.0 0.00 0.03 0.00 67 1019.1
20260831152024 23 315 0.0 0.0 0.00 0.03 0.00 68 1019.1
20260831151523 23 101 0.0 0.0 0.00 0.03 0.00 69 1019.0
20260831151022 23 87 0.0 0.0 0.00 0.03 0.00 69 1018.9
20260831150520 23 349 0.0 0.0 0.00 0.03 0.00 69 1019.1
20260831150022 23 78 0.0 0.0 0.00 0.03 0.00 73 1019.1
20260831145517 23 96 0.0 0.0 0.00 0.03 0.00 73 1019.2
20260831145017 22 1 0.0 0.0 0.00 0.03 0.00 73 1019.2
20260831144517 22 329 0.0 0.0 0.00 0.03 0.00 72 1019.2
20260831144017 22 309 0.0 0.0 0.00 0.03 0.00 74 1019.2
20260831143517 22 110 0.0 0.0 0.00 0.03 0.00 73 1019.2
20260831143014 22 64 0.0 0.0 0.00 0.03 0.00 74 1019.1
20260831142513 22 318 0.0 0.0 0.00 0.03 0.00 73 1019.0
20260831142015 22 104 0.0 0.0 0.00 0.03 0.00 74 1019.0
20260831141511 22 118 0.0 0.0 0.00 0.03 0.00 74 1019.1
20260831141010 22 111 0.0 0.0 0.00 0.03 0.00 75 1019.1
20260831140509 21 359 0.0 0.0 0.00 0.03 0.00 80 1019.0
20260831140009 21 345 0.0 0.0 0.00 0.03 0.00 80 1019.0
20260831135509 21 337 0.0 0.0 0.00 0.03 0.00 80 1019.1
20260831135007 21 175 0.0 0.0 0.00 0.03 0.00 81 1019.1
20260831134506 21 106 0.0 0.0 0.00 0.03 0.00 82 1019.0
20260831134008 21 326 0.0 1.6 0.00 0.03 0.00 81 1018.8
20260831133504 21 353 0.0 1.6 0.00 0.03 0.00 82 1019.0
20260831133015 21 321 0.0 1.6 0.00 0.03 0.00 83 1019.1
20260831132506 21 360 0.0 1.6 0.00 0.03 0.00 83 1019.1